Location: Lachepaillet
(43.4918°N, 1.4874°W)
Time: 02:34:18
(UTC+00:00)

Cosmos 540 Rocket - Pass Details

Date: 15 May 2026
Orbit: 735 x 747 km, 74.1° (Epoch: 8 June)

Event Time Altitude Azimuth Distance (km) Brightness Sun altitude
Exits shadow 22:07:43 44° 197° (SSW) 1,032 3.8 -22.2°
Maximum altitude 22:09:25 88° 109° (ESE) 753 3.3 -22.3°
Drops below altitude 10° 22:14:35 10° 21° (NNE) 2,271 6.5 -22.8°
Sets 22:16:56 0° 21° (NNE) 3,198 7.3 -23.0°
